Radiation Dose at Monitoring Post of Fukushima Daini Nuclear Power Station
Date,Time,MP-1(microSv/h),MP-2(microSv/h),MP-3(microSv/h),MP-4(microSv/h),MP-5(microSv/h),MP-6(microSv/h),MP-7(microSv/h),Wind Direction,Wind Velocity(m/s),Rain
2020/05/08,00:00,0.179,0.163,0.278,0.250,0.260,0.141,0.085,northwest,3.9,No
2020/05/08,00:10,0.178,0.165,0.277,0.251,0.259,0.140,0.085,north,4.0,No
2020/05/08,00:20,0.180,0.165,0.277,0.250,0.259,0.141,0.085,north,4.1,No
2020/05/08,00:30,0.180,0.164,0.277,0.252,0.260,0.141,0.085,north,4.3,No
2020/05/08,00:40,0.179,0.164,0.277,0.250,0.261,0.141,0.086,north-northwest,5.2,No
2020/05/08,00:50,0.180,0.164,0.277,0.249,0.260,0.141,0.085,north-northwest,5.3,No
2020/05/08,01:00,0.178,0.164,0.277,0.251,0.260,0.140,0.085,north-northwest,5.4,No
2020/05/08,01:10,0.178,0.163,0.276,0.251,0.258,0.141,0.086,north-northwest,5.4,No
2020/05/08,01:20,0.179,0.165,0.276,0.250,0.260,0.142,0.085,north-northwest,5.3,No
2020/05/08,01:30,0.179,0.164,0.275,0.251,0.260,0.141,0.085,north-northwest,5.1,No
2020/05/08,01:40,0.178,0.164,0.277,0.251,0.259,0.140,0.085,west,1.4,No
2020/05/08,01:50,0.178,0.164,0.278,0.251,0.259,0.141,0.085,south,2.0,No
2020/05/08,02:00,0.180,0.164,0.277,0.250,0.259,0.141,0.085,south,1.8,No
2020/05/08,02:10,0.180,0.164,0.277,0.250,0.259,0.141,0.085,south,3.7,No
2020/05/08,02:20,0.179,0.163,0.277,0.251,0.260,0.140,0.085,south-southeast,3.9,No
2020/05/08,02:30,0.179,0.165,0.275,0.250,0.260,0.142,0.085,south,4.0,No
2020/05/08,02:40,0.180,0.164,0.277,0.250,0.259,0.140,0.085,south-southeast,3.1,No
2020/05/08,02:50,0.178,0.163,0.278,0.250,0.258,0.141,0.086,south-southeast,3.7,No
2020/05/08,03:00,0.178,0.163,0.276,0.250,0.258,0.142,0.085,southeast,3.8,No
2020/05/08,03:10,0.179,0.165,0.276,0.250,0.260,0.141,0.084,southeast,3.4,No
2020/05/08,03:20,0.178,0.164,0.277,0.250,0.259,0.141,0.086,south-southeast,2.3,No
2020/05/08,03:30,0.179,0.163,0.276,0.250,0.259,0.141,0.085,south,1.3,No
2020/05/08,03:40,0.179,0.165,0.277,0.251,0.260,0.141,0.085,-,CALM,No
2020/05/08,03:50,0.179,0.164,0.276,0.250,0.260,0.141,0.086,-,CALM,No
2020/05/08,04:00,0.178,0.164,0.277,0.250,0.261,0.140,0.085,west,0.7,No
2020/05/08,04:10,0.179,0.164,0.276,0.250,0.259,0.140,0.085,west-northwest,1.4,No
2020/05/08,04:20,0.179,0.164,0.277,0.252,0.260,0.141,0.085,northwest,1.8,No
2020/05/08,04:30,0.180,0.164,0.276,0.249,0.259,0.142,0.085,northwest,1.8,No
2020/05/08,04:40,0.178,0.163,0.276,0.250,0.259,0.142,0.085,north-northwest,1.2,No
2020/05/08,04:50,0.178,0.164,0.278,0.251,0.259,0.140,0.086,northeast,1.0,No
2020/05/08,05:00,0.179,0.163,0.278,0.251,0.259,0.141,0.085,east,0.7,No
2020/05/08,05:10,0.180,0.164,0.276,0.251,0.260,0.141,0.086,-,CALM,No
2020/05/08,05:20,0.179,0.163,0.277,0.250,0.259,0.141,0.085,southwest,0.9,No
2020/05/08,05:30,0.179,0.164,0.278,0.251,0.260,0.141,0.085,west-southwest,1.5,No
2020/05/08,05:40,0.179,0.163,0.276,0.250,0.259,0.140,0.085,west-southwest,1.1,No
2020/05/08,05:50,0.179,0.163,0.275,0.251,0.259,0.140,0.085,-,CALM,No
2020/05/08,06:00,0.178,0.163,0.276,0.249,0.259,0.140,0.085,-,CALM,No
2020/05/08,06:10,0.179,0.164,0.277,0.250,0.259,0.141,0.085,southeast,0.6,No
2020/05/08,06:20,0.179,0.162,0.276,0.250,0.261,0.141,0.085,east-southeast,0.8,No
2020/05/08,06:30,0.179,0.165,0.278,0.251,0.260,0.141,0.085,-,CALM,No
2020/05/08,06:40,0.178,0.163,0.278,0.251,0.258,0.141,0.085,-,CALM,No
2020/05/08,06:50,0.178,0.162,0.276,0.250,0.261,0.141,0.085,-,CALM,No
2020/05/08,07:00,0.180,0.163,0.276,0.249,0.259,0.140,0.085,-,CALM,No
2020/05/08,07:10,0.179,0.162,0.277,0.250,0.261,0.140,0.086,-,CALM,No
2020/05/08,07:20,0.178,0.163,0.275,0.248,0.261,0.140,0.085,-,CALM,No
2020/05/08,07:30,0.179,0.162,0.275,0.249,0.259,0.141,0.086,south-southeast,0.8,No
2020/05/08,07:40,0.178,0.164,0.274,0.250,0.262,0.140,0.086,southeast,0.8,No
2020/05/08,07:50,0.179,0.163,0.273,0.247,0.259,0.140,0.085,east-southeast,1.4,No
2020/05/08,08:00,0.177,0.163,0.275,0.250,0.262,0.141,0.085,southeast,1.7,No
2020/05/08,08:10,0.179,0.164,0.273,0.248,0.257,0.140,0.085,southeast,2.3,No
2020/05/08,08:20,0.177,0.162,0.274,0.250,0.260,0.141,0.086,southeast,2.6,No
2020/05/08,08:30,0.178,0.164,0.276,0.249,0.259,0.140,0.085,south-southeast,2.6,No
2020/05/08,08:40,0.177,0.163,0.274,0.247,0.259,0.141,0.084,southeast,2.3,No
2020/05/08,08:50,0.177,0.163,0.276,0.247,0.259,0.140,0.086,south-southeast,2.3,No
2020/05/08,09:00,0.179,0.164,0.276,0.250,0.259,0.140,0.085,southeast,2.4,No
2020/05/08,09:10,0.178,0.163,0.275,0.249,0.262,0.141,0.085,south,1.1,No
2020/05/08,09:20,0.177,0.164,0.279,0.250,0.258,0.140,0.086,-,CALM,No
2020/05/08,09:30,0.179,0.163,0.277,0.251,0.260,0.140,0.085,-,CALM,No
2020/05/08,09:40,0.177,0.163,0.275,0.248,0.260,0.140,0.086,east-southeast,0.8,No
2020/05/08,09:50,0.177,0.164,0.277,0.249,0.258,0.139,0.086,southeast,1.1,No
2020/05/08,10:00,0.178,0.163,0.277,0.251,0.262,0.140,0.085,southeast,3.3,No
2020/05/08,10:10,0.178,0.164,0.275,0.249,0.261,0.141,0.085,east-southeast,2.8,No
2020/05/08,10:20,0.178,0.164,0.277,0.249,0.258,0.141,0.086,east-southeast,3.1,No
2020/05/08,10:30,0.179,0.163,0.277,0.251,0.262,0.140,0.085,south-southeast,1.1,No
2020/05/08,10:40,0.178,0.164,0.276,0.252,0.260,0.141,0.085,southeast,2.1,No
2020/05/08,10:50,0.177,0.164,0.277,0.249,0.258,0.140,0.085,south-southeast,2.9,No
2020/05/08,11:00,0.179,0.162,0.279,0.252,0.261,0.141,0.085,south-southeast,2.8,No
2020/05/08,11:10,0.179,0.165,0.277,0.250,0.260,0.142,0.085,south,1.5,No
2020/05/08,11:20,0.177,0.164,0.275,0.249,0.257,0.141,0.086,south-southeast,1.2,No
2020/05/08,11:30,0.177,0.163,0.279,0.251,0.261,0.140,0.085,south-southeast,1.6,No
2020/05/08,11:40,0.179,0.165,0.277,0.252,0.261,0.141,0.085,south-southeast,2.2,No
2020/05/08,11:50,0.179,0.164,0.275,0.251,0.259,0.141,0.086,south-southeast,2.9,No
2020/05/08,12:00,0.177,0.163,0.278,0.250,0.259,0.141,0.085,southeast,2.3,No
2020/05/08,12:10,0.179,0.164,0.278,0.251,0.263,0.142,0.085,south-southeast,1.5,No
2020/05/08,12:20,0.180,0.163,0.276,0.250,0.260,0.141,0.085,southeast,4.1,No
2020/05/08,12:30,0.179,0.164,0.278,0.251,0.258,0.141,0.085,south-southeast,4.4,No
2020/05/08,12:40,0.178,0.166,0.278,0.252,0.260,0.142,0.085,south,2.9,No
2020/05/08,12:50,0.179,0.163,0.276,0.251,0.260,0.141,0.085,south,0.7,No
2020/05/08,13:00,0.180,0.164,0.275,0.249,0.258,0.141,0.085,-,CALM,No
2020/05/08,13:10,0.178,0.164,0.278,0.253,0.259,0.141,0.086,south,1.4,No
2020/05/08,13:20,0.177,0.164,0.279,0.252,0.262,0.140,0.086,south,4.4,No
2020/05/08,13:30,0.179,0.164,0.277,0.250,0.259,0.140,0.086,south,4.0,No
2020/05/08,13:40,0.180,0.165,0.278,0.252,0.259,0.141,0.085,south-southeast,5.6,No
2020/05/08,13:50,0.179,0.164,0.280,0.252,0.262,0.141,0.085,south-southeast,5.5,No
2020/05/08,14:00,0.177,0.164,0.277,0.250,0.261,0.141,0.085,south-southeast,7.5,No
2020/05/08,14:10,0.177,0.164,0.276,0.251,0.258,0.142,0.085,south-southeast,6.4,No
2020/05/08,14:20,0.180,0.164,0.279,0.253,0.258,0.141,0.086,south-southeast,5.9,No
2020/05/08,14:30,0.180,0.164,0.279,0.250,0.261,0.140,0.085,south-southeast,8.1,No
2020/05/08,14:40,0.178,0.164,0.275,0.251,0.260,0.143,0.086,south-southeast,7.3,No
2020/05/08,14:50,0.177,0.163,0.279,0.253,0.258,0.141,0.085,south-southeast,9.2,No
2020/05/08,15:00,0.180,0.164,0.279,0.251,0.261,0.140,0.085,south-southeast,7.4,No
2020/05/08,15:10,0.179,0.164,0.277,0.251,0.262,0.141,0.086,south-southeast,7.3,No
2020/05/08,15:20,0.179,0.165,0.279,0.253,0.258,0.141,0.085,south,10.1,No
2020/05/08,15:30,0.177,0.164,0.279,0.251,0.260,0.141,0.085,south-southeast,9.3,No
2020/05/08,15:40,0.179,0.164,0.278,0.254,0.260,0.141,0.085,south-southeast,9.8,No
2020/05/08,15:50,0.180,0.164,0.280,0.252,0.259,0.141,0.085,south-southeast,10.6,No
2020/05/08,16:00,0.178,0.165,0.280,0.254,0.261,0.141,0.085,south-southeast,10.7,No
2020/05/08,16:10,0.181,0.165,0.281,0.252,0.261,0.141,0.085,south-southeast,9.5,No
2020/05/08,16:20,0.180,0.165,0.278,0.255,0.258,0.141,0.086,south-southeast,10.1,No
2020/05/08,16:30,0.179,0.164,0.281,0.253,0.262,0.141,0.085,south,10.6,No
2020/05/08,16:40,0.180,0.166,0.279,0.255,0.261,0.142,0.085,south-southeast,10.1,No
2020/05/08,16:50,0.179,0.164,0.281,0.252,0.260,0.142,0.085,south-southeast,10.1,No
2020/05/08,17:00,0.180,0.165,0.280,0.253,0.260,0.141,0.086,south-southeast,9.5,No
2020/05/08,17:10,0.180,0.164,0.279,0.253,0.263,0.142,0.085,south,11.7,No
2020/05/08,17:20,0.181,0.165,0.280,0.253,0.263,0.142,0.085,south,11.2,No
2020/05/08,17:30,0.179,0.164,0.278,0.252,0.260,0.141,0.085,south,11.2,No
2020/05/08,17:40,0.181,0.166,0.280,0.253,0.262,0.141,0.086,south,11.2,No
2020/05/08,17:50,0.180,0.165,0.278,0.252,0.263,0.142,0.086,south,9.8,No
2020/05/08,18:00,0.179,0.164,0.281,0.251,0.262,0.142,0.085,south,10.6,No
2020/05/08,18:10,0.179,0.165,0.279,0.254,0.262,0.142,0.086,south,8.1,No
2020/05/08,18:20,0.181,0.165,0.280,0.253,0.262,0.141,0.086,south,9.0,No
2020/05/08,18:30,0.180,0.165,0.278,0.253,0.261,0.142,0.085,south-southwest,8.3,No
2020/05/08,18:40,0.179,0.164,0.279,0.252,0.262,0.141,0.085,south-southwest,8.5,No
2020/05/08,18:50,0.179,0.164,0.279,0.254,0.262,0.142,0.086,south,7.0,No
2020/05/08,19:00,0.180,0.165,0.280,0.254,0.261,0.142,0.086,south-southwest,7.4,No
2020/05/08,19:10,0.179,0.164,0.280,0.253,0.263,0.142,0.086,south-southwest,9.0,No
2020/05/08,19:20,0.180,0.166,0.279,0.253,0.260,0.141,0.086,south-southwest,8.2,No
2020/05/08,19:30,0.178,0.165,0.281,0.254,0.264,0.141,0.085,south-southwest,7.6,No
2020/05/08,19:40,0.180,0.166,0.280,0.252,0.261,0.142,0.086,south-southwest,7.2,No
2020/05/08,19:50,0.180,0.165,0.280,0.253,0.262,0.142,0.086,south-southwest,8.6,No
2020/05/08,20:00,0.180,0.165,0.280,0.253,0.261,0.141,0.086,south-southwest,8.1,No
2020/05/08,20:10,0.180,0.164,0.279,0.253,0.260,0.141,0.085,south,6.8,No
2020/05/08,20:20,0.179,0.165,0.281,0.252,0.262,0.142,0.085,south,4.8,No
2020/05/08,20:30,0.180,0.165,0.279,0.253,0.261,0.141,0.085,south-southwest,4.8,No
2020/05/08,20:40,0.180,0.165,0.279,0.254,0.262,0.142,0.086,south,5.5,No
2020/05/08,20:50,0.180,0.165,0.280,0.252,0.260,0.141,0.085,south-southwest,6.3,No
2020/05/08,21:00,0.180,0.165,0.279,0.254,0.260,0.142,0.086,south-southwest,7.1,No
2020/05/08,21:10,0.180,0.165,0.280,0.253,0.262,0.141,0.086,south-southwest,6.4,No
2020/05/08,21:20,0.180,0.165,0.279,0.253,0.261,0.141,0.085,south-southwest,7.5,No
2020/05/08,21:30,0.179,0.165,0.280,0.253,0.262,0.142,0.086,south,6.9,No
2020/05/08,21:40,0.180,0.165,0.281,0.252,0.260,0.142,0.085,south,7.3,No
2020/05/08,21:50,0.180,0.164,0.279,0.254,0.262,0.141,0.086,south,7.2,No
2020/05/08,22:00,0.181,0.165,0.279,0.252,0.261,0.142,0.086,south,8.8,No
2020/05/08,22:10,0.180,0.166,0.278,0.253,0.261,0.142,0.086,south,9.8,No
2020/05/08,22:20,0.179,0.165,0.281,0.253,0.260,0.142,0.086,south-southwest,10.0,No
2020/05/08,22:30,0.180,0.164,0.280,0.253,0.260,0.141,0.086,south-southwest,9.2,No
2020/05/08,22:40,0.180,0.165,0.279,0.253,0.263,0.141,0.085,south-southwest,8.1,No
2020/05/08,22:50,0.180,0.164,0.280,0.252,0.260,0.141,0.086,south-southwest,9.0,No
2020/05/08,23:00,0.180,0.166,0.279,0.253,0.263,0.141,0.085,south-southwest,9.5,No
2020/05/08,23:10,0.181,0.165,0.279,0.253,0.260,0.142,0.086,south-southwest,7.9,No
2020/05/08,23:20,0.180,0.165,0.280,0.253,0.261,0.141,0.086,south-southwest,7.1,No
2020/05/08,23:30,0.180,0.165,0.278,0.254,0.262,0.142,0.086,south-southwest,8.1,No
2020/05/08,23:40,0.181,0.164,0.281,0.253,0.260,0.141,0.086,south-southwest,7.4,No
2020/05/08,23:50,0.179,0.165,0.279,0.252,0.264,0.141,0.085,southwest,8.4,No
